[[{"header":{"parameterUnit":"m.s-1","parameterCategory":1,"la1":30.2991,"la2":30.254,"lo1":-89.0895,"lo2":-89.0444,"dy":0.0017,"dx":0.0017,"nx":28,"ny":28,"refTime":"2026-01-01T09:00:00:Z","depth":0,"parameterNumber":2,"parameterNumberName":"U-component_of_WINDS"},"data":[0,0,0,0,0,0,0,0,0,0,0,0,0,0,0,0,0,0,0,0,0,0,0,0,0,0,0,0,0,0,0,0,0,0,0,0,0,0,0,0,0,0,0,0,0,0,0,0,0,0,0,0,0,0,0,0,0,0,4.0117,4.012,0,4.0347,4.0349,4.0352,4.0313,4.0309,4.0305,4.0301,4.0541,4.0551,4.0561,0,0,0,0,0,0,0,0,0,0,0,0,0,3.965,3.9658,4.0117,4.012,4.0123,4.0346,4.0349,4.0353,4.0313,4.0309,4.0304,4.0299,4.0537,4.0549,4.0562,0,0,0,0,0,0,0,0,0,0,0,0,0,3.9863,3.9661,4.0117,4.013,4.0134,4.0346,4.0349,4.0353,4.0315,4.0308,4.0302,4.0297,4.0534,4.0548,4.0563,4.0778,0,0,4.061,4.0616,0,0,0,0,0,0,0,0,3.9851,3.9881,4.0125,4.013,4.0134,4.0295,4.0272,4.0496,4.0316,4.0246,4.0301,4.0294,4.0464,4.0485,4.0541,4.0789,4.0799,4.0611,4.062,4.0627,4.0631,0,0,0,0,0,0,0,3.9836,3.987,4.0208,4.0129,4.0134,4.0126,4.015,4.0315,4.0386,4.0252,4.0249,4.0277,4.0465,4.0527,4.0546,4.0803,4.0611,4.0624,4.0633,4.0639,4.1239,4.1245,0,0,0,0,0,0,3.9817,3.9858,4.0201,4.0215,3.9975,4.014,4.0166,4.0249,4.0384,4.0399,4.0282,4.0274,4.0504,4.0529,4.0555,4.0815,4.0627,4.0641,4.065,4.1232,4.124,4.1247,0,0,0,0,0,0,3.9807,3.9848,4.0192,4.0036,4.0079,4.0154,4.0248,4.0257,4.0318,4.0407,4.042,4.0331,4.05,4.0533,4.0722,4.0823,4.0648,4.0662,4.1224,4.1234,4.1244,4.1337,0,0,0,0,0,0,3.9794,3.9845,3.9926,4.0038,4.0088,4.0354,4.0254,4.0266,4.0344,4.0336,4.0456,4.0471,4.0498,4.07,4.0737,4.0841,4.0673,4.1215,4.1229,4.1241,4.1326,4.1349,4.137,0,0,0,0,0,3.9777,3.9944,3.993,3.9972,4.0191,4.036,4.0389,4.0415,4.0352,4.0435,4.0492,4.0467,4.0805,4.0719,4.0762,4.0871,4.1209,4.1225,4.124,4.1316,4.1345,4.1369,0,0,0,0,0,0,3.9843,3.9959,3.9945,4.0153,4.0247,4.0353,4.0459,4.0445,4.056,4.0548,4.0577,4.0605,4.0796,4.0852,4.0755,4.1086,4.0999,4.1023,4.1042,4.1071,4.1092,4.1075,4.0686,0,0,0,0,0,3.9882,4.0008,4.0103,4.0277,4.0325,4.0384,4.0459,4.047,4.057,4.061,4.0681,4.0779,4.0908,4.0992,4.1115,4.1333,4.1359,4.1429,4.1451,4.1469,4.149,4.161,4.1642,4.1298,4.1298,4.1297,0,0,3.9963,4.0042,4.012,4.0293,4.0367,4.0499,4.0418,4.056,4.0659,4.0632,4.0814,4.087,4.0982,4.1186,4.128,4.1239,4.1591,4.1488,4.1502,4.1514,4.1629,4.1662,4.1691,4.1308,4.1306,4.1305,0,0,4.0179,4.0251,4.0404,4.0479,4.0592,4.063,4.0667,4.0776,4.0811,4.0994,4.0977,4.1095,4.1316,4.1396,4.1466,4.1712,4.1693,4.1751,4.1867,4.1984,4.2011,4.2035,4.2124,4.2155,4.1772,4.1772,4.1772,0,4.0266,4.0463,4.0485,4.063,4.0706,4.0686,4.0842,4.0915,4.1063,4.1117,4.1068,4.1345,4.1419,4.1642,4.1702,4.1759,4.1803,4.1738,4.2005,4.203,4.2053,4.2137,4.2171,4.1778,4.1778,4.1777,4.1776,0,4.0565,4.0702,4.0812,4.0954,4.1043,4.1193,4.1239,4.1326,4.133,4.1374,4.1561,4.1649,4.179,4.1843,4.1849,4.2068,4.2039,4.1998,4.1911,4.2091,4.2172,4.2204,4.1788,4.1785,4.1783,4.1782,0,0,4.083,4.0981,4.1021,4.1085,4.1208,4.1315,4.1464,4.16,4.1675,4.1778,4.1904,4.2091,4.2054,4.2133,4.2148,4.225,4.244,4.2196,4.2199,4.2239,4.2687,4.2718,4.2755,4.2428,4.2434,4.2439,4.2678,0,4.1058,4.132,4.1344,4.158,4.1706,4.1689,4.1819,4.1909,4.1953,4.2069,4.2118,4.225,4.219,4.2238,4.2338,4.2396,4.2531,4.2379,4.2548,4.2553,4.2521,4.2797,4.2831,4.3052,4.2709,4.2715,4.2719,0,4.136,4.1469,4.1717,4.1821,4.1875,4.1992,4.2118,4.2228,4.233,4.2356,4.2444,4.2445,4.26,4.2506,4.2721,4.2617,4.2688,4.2726,4.2736,4.2753,4.2648,4.2823,4.3123,4.3157,4.2768,4.2764,4.2761,0,4.1529,4.1739,4.1914,4.1969,4.2095,4.2178,4.2234,4.233,4.241,4.2521,4.2574,4.2702,4.2773,4.2873,4.2909,4.2837,4.3123,4.3032,4.315,4.3149,4.3211,4.3207,4.3528,4.3255,4.3255,4.3254,4.3254,0,4.1782,4.1935,4.1992,4.21,4.2271,4.2297,4.2466,4.2518,4.2604,4.2723,4.2715,4.2827,4.2868,4.2987,4.3017,4.3191,4.3223,4.3248,4.3255,4.325,4.3247,4.3297,4.3283,4.3263,4.3261,4.3259,4.3258,0,4.2001,4.2045,4.2235,4.2338,4.2368,4.2489,4.2578,4.2683,4.2725,4.2876,4.2913,4.298,4.312,4.3165,4.3335,4.3355,4.3558,4.355,4.3523,4.3524,4.3639,4.3628,4.4005,4.4056,4.3749,4.3752,4.3754,0,4.216,4.2277,4.2392,4.247,4.2529,4.2656,4.2737,4.2767,4.2853,4.2977,4.3068,4.3206,4.3318,4.3543,4.3608,4.3737,4.3734,4.3856,4.3753,4.3745,4.3737,4.3729,4.3742,4.3876,4.3879,4.3882,4.3884,0,4.2438,4.2453,4.257,4.2695,4.2791,4.2891,4.2988,4.3053,4.3098,4.3194,4.3336,4.3423,4.3595,4.3733,4.3865,4.3925,4.3914,4.3916,4.395,4.3947,4.3926,4.394,4.3577,4.3907,4.3905,4.3903,4.3902,4.3901,4.2633,4.2735,4.2832,4.2962,4.3037,4.3128,4.3231,4.3285,4.3403,4.3545,4.3556,4.371,4.3809,4.3985,4.4052,4.4173,4.4138,4.4188,4.4201,4.4213,4.4222,4.3906,4.4197,4.4197,4.4196,4.4196,4.4195,0,4.2911,4.2971,4.3091,4.3225,4.3328,4.3305,4.341,4.3498,4.3633,4.3725,4.3835,4.3999,4.4132,4.4207,4.4341,4.4424,4.4422,4.4458,4.4453,4.4467,4.4245,4.4202,4.4457,4.4457,4.4457,4.4457,4.4457,4.4457,4.3067,4.324,4.3267,4.3478,4.3538,4.3687,4.3749,4.3833,4.3907,4.4089,4.4199,4.4246,4.4332,4.4472,4.4593,4.4612,4.4662,4.4702,4.4718,4.4509,4.4482,4.4457,4.4417,4.4713,4.4713,4.4929,4.4931,4.4933]},{"header":{"parameterUnit":"m.s-1","parameterCategory":1,"la1":30.2991,"la2":30.254,"lo1":-89.0895,"lo2":-89.0444,"dy":0.0017,"dx":0.0017,"nx":28,"ny":28,"refTime":"2026-01-01T09:00:00:Z","depth":0,"parameterNumber":3,"parameterNumberName":"V-component_of_WINDS"},"data":[0,0,0,0,0,0,0,0,0,0,0,0,0,0,0,0,0,0,0,0,0,0,0,0,0,0,0,0,0,0,0,0,0,0,0,0,0,0,0,0,0,0,0,0,0,0,0,0,0,0,0,0,0,0,0,0,0,0,-0.8615,-0.8616,0,-0.867,-0.8671,-0.8671,-0.8705,-0.8705,-0.8706,-0.8706,-0.8762,-0.8763,-0.8764,0,0,0,0,0,0,0,0,0,0,0,0,0,-0.8541,-0.8542,-0.8615,-0.8616,-0.8617,-0.867,-0.8671,-0.8671,-0.8705,-0.8705,-0.8706,-0.8706,-0.8761,-0.8763,-0.8764,0,0,0,0,0,0,0,0,0,0,0,0,0,-0.8582,-0.8542,-0.8615,-0.864,-0.8643,-0.867,-0.8671,-0.8672,-0.8705,-0.8705,-0.8706,-0.8706,-0.8761,-0.8763,-0.8765,-0.8771,0,0,-0.8771,-0.8771,0,0,0,0,0,0,0,0,-0.858,-0.8585,-0.8636,-0.8638,-0.8641,-0.8681,-0.8665,-0.8705,-0.8705,-0.8681,-0.8706,-0.8706,-0.8735,-0.8739,-0.8748,-0.8774,-0.8776,-0.8771,-0.8772,-0.8773,-0.8773,0,0,0,0,0,0,0,-0.8577,-0.8583,-0.8637,-0.8636,-0.864,-0.8649,-0.8655,-0.8673,-0.8706,-0.8683,-0.8686,-0.8692,-0.8736,-0.8746,-0.875,-0.8777,-0.8771,-0.8772,-0.8774,-0.8774,-0.8813,-0.8812,0,0,0,0,0,0,-0.857,-0.858,-0.8635,-0.8639,-0.8611,-0.865,-0.8657,-0.8668,-0.8706,-0.8712,-0.8692,-0.8693,-0.8743,-0.8748,-0.8752,-0.8763,-0.8773,-0.8775,-0.8776,-0.8813,-0.8812,-0.8812,0,0,0,0,0,0,-0.8568,-0.8575,-0.8633,-0.861,-0.8618,-0.8651,-0.8663,-0.8669,-0.8679,-0.8712,-0.8718,-0.8696,-0.8743,-0.8749,-0.8767,-0.8766,-0.8776,-0.8777,-0.8813,-0.8813,-0.8812,-0.8785,0,0,0,0,0,0,-0.8566,-0.8574,-0.8576,-0.861,-0.8619,-0.8646,-0.8663,-0.867,-0.8683,-0.8685,-0.8718,-0.8723,-0.8744,-0.8763,-0.8769,-0.8768,-0.8779,-0.8813,-0.8813,-0.8812,-0.8786,-0.8784,-0.8782,0,0,0,0,0,-0.8563,-0.8566,-0.8576,-0.8583,-0.8623,-0.8646,-0.8651,-0.8675,-0.8682,-0.8685,-0.8707,-0.8722,-0.8765,-0.8765,-0.8771,-0.8771,-0.8813,-0.8813,-0.8813,-0.8787,-0.8784,-0.8782,0,0,0,0,0,0,-0.8531,-0.8571,-0.8582,-0.8596,-0.8618,-0.8652,-0.8656,-0.8671,-0.8691,-0.8693,-0.8722,-0.8729,-0.8743,-0.8759,-0.8758,-0.8781,-0.8791,-0.8792,-0.877,-0.8767,-0.8765,-0.8761,-0.8781,0,0,0,0,0,-0.8526,-0.8541,-0.8575,-0.8584,-0.8594,-0.8623,-0.8634,-0.8651,-0.8674,-0.8683,-0.8706,-0.8727,-0.8746,-0.8758,-0.8776,-0.8789,-0.8797,-0.8792,-0.879,-0.8788,-0.8788,-0.8797,-0.8796,-0.8811,-0.8811,-0.8811,0,0,-0.8514,-0.8538,-0.8546,-0.8578,-0.8596,-0.8612,-0.863,-0.8646,-0.8657,-0.8685,-0.8703,-0.8721,-0.8747,-0.8762,-0.877,-0.8776,-0.8786,-0.8788,-0.8786,-0.8787,-0.8797,-0.8795,-0.8794,-0.8811,-0.8811,-0.8811,0,0,-0.8502,-0.8521,-0.8531,-0.8549,-0.8577,-0.8597,-0.8599,-0.8632,-0.8644,-0.8663,-0.8684,-0.8699,-0.873,-0.8749,-0.8762,-0.8758,-0.8774,-0.8764,-0.8752,-0.8761,-0.8759,-0.8758,-0.8758,-0.8757,-0.8764,-0.8764,-0.8764,0,-0.8484,-0.8508,-0.8534,-0.8548,-0.8562,-0.8589,-0.8599,-0.8616,-0.8649,-0.8658,-0.8664,-0.8705,-0.8724,-0.8745,-0.8744,-0.8754,-0.8758,-0.876,-0.8757,-0.8757,-0.8756,-0.8756,-0.8755,-0.8763,-0.8763,-0.8763,-0.8763,0,-0.8485,-0.8502,-0.8506,-0.8538,-0.8552,-0.8564,-0.8593,-0.8605,-0.8621,-0.864,-0.8659,-0.8684,-0.8709,-0.8715,-0.873,-0.8738,-0.8741,-0.8752,-0.8763,-0.8753,-0.8753,-0.8753,-0.8761,-0.8761,-0.8761,-0.8762,0,0,-0.8453,-0.8499,-0.8501,-0.8516,-0.8549,-0.8562,-0.8577,-0.8601,-0.8611,-0.8633,-0.8646,-0.8672,-0.8683,-0.8699,-0.8717,-0.8724,-0.872,-0.8734,-0.8736,-0.8731,-0.8731,-0.8722,-0.8721,-0.8731,-0.8731,-0.8731,-0.8729,0,-0.8445,-0.8471,-0.8496,-0.8514,-0.853,-0.8556,-0.8568,-0.8591,-0.8609,-0.8626,-0.8647,-0.8666,-0.8678,-0.8688,-0.8696,-0.8719,-0.872,-0.8719,-0.8743,-0.8744,-0.8736,-0.8721,-0.8712,-0.8708,-0.8729,-0.8729,-0.8729,0,-0.8439,-0.8461,-0.848,-0.8513,-0.8521,-0.8531,-0.8557,-0.8572,-0.8598,-0.8612,-0.8629,-0.8649,-0.8666,-0.8675,-0.8699,-0.8698,-0.871,-0.8722,-0.8723,-0.8726,-0.8735,-0.8724,-0.8708,-0.8707,-0.8729,-0.8729,-0.8729,0,-0.8414,-0.8447,-0.8464,-0.8476,-0.8515,-0.8522,-0.8538,-0.8565,-0.8579,-0.8601,-0.861,-0.8634,-0.8647,-0.8665,-0.8691,-0.8695,-0.8713,-0.8724,-0.8725,-0.8724,-0.8726,-0.8726,-0.8712,-0.8734,-0.8734,-0.8734,-0.8734,0,-0.8402,-0.8413,-0.8453,-0.8463,-0.8476,-0.8505,-0.8517,-0.8536,-0.856,-0.8575,-0.8599,-0.8612,-0.8645,-0.8663,-0.8683,-0.87,-0.8706,-0.8718,-0.8723,-0.8715,-0.8714,-0.8723,-0.8724,-0.8734,-0.8734,-0.8734,-0.8734,0,-0.8376,-0.8403,-0.8422,-0.8458,-0.8467,-0.8475,-0.8506,-0.8517,-0.8538,-0.8556,-0.8562,-0.8595,-0.8617,-0.8645,-0.8675,-0.8689,-0.8704,-0.8712,-0.8695,-0.8698,-0.8697,-0.8697,-0.8689,-0.8689,-0.8711,-0.871,-0.871,0,-0.8366,-0.8376,-0.8413,-0.8424,-0.844,-0.8458,-0.8473,-0.8502,-0.8516,-0.8548,-0.8555,-0.8579,-0.8599,-0.8634,-0.866,-0.8684,-0.8693,-0.8689,-0.8697,-0.8689,-0.8693,-0.8692,-0.8694,-0.8686,-0.8686,-0.8685,-0.8685,0,-0.8347,-0.8361,-0.838,-0.8405,-0.8421,-0.8442,-0.8464,-0.8472,-0.8506,-0.8521,-0.8544,-0.856,-0.8592,-0.8616,-0.8643,-0.8661,-0.8679,-0.8683,-0.8684,-0.8676,-0.8666,-0.8672,-0.8689,-0.8682,-0.8683,-0.8683,-0.8683,-0.8683,-0.8329,-0.8339,-0.8367,-0.8388,-0.8408,-0.8428,-0.8441,-0.8464,-0.8483,-0.8511,-0.8528,-0.855,-0.8578,-0.8617,-0.8634,-0.8653,-0.866,-0.8661,-0.8662,-0.8662,-0.866,-0.8663,-0.8658,-0.8658,-0.8658,-0.8659,-0.8659,0,-0.8312,-0.8331,-0.8351,-0.8381,-0.8398,-0.8414,-0.844,-0.8453,-0.8472,-0.8497,-0.8517,-0.8544,-0.8567,-0.8597,-0.8622,-0.8632,-0.8641,-0.8638,-0.8637,-0.8641,-0.8652,-0.8649,-0.863,-0.863,-0.863,-0.863,-0.863,-0.863,-0.8304,-0.8322,-0.8339,-0.8367,-0.8386,-0.8409,-0.8422,-0.8441,-0.8461,-0.849,-0.851,-0.8529,-0.8555,-0.8584,-0.8606,-0.8615,-0.8623,-0.8617,-0.8628,-0.8638,-0.864,-0.8642,-0.8639,-0.8619,-0.8619,-0.8615,-0.8615,-0.8615]}]]